This is the latest recevied weather packets stored in our database for station/object EA5DFV. If no packets are shown the sender has not sent any weather packets the latest 10 day(s).
| Time | Temp. | Humidity | Pressure | Rain* | Wind** | Luminosity | Snow |
|---|---|---|---|---|---|---|---|
| 1777649618 | 20° C | 78% | 1019.9 hPa | 0 mm | - | 262 W/m² | - |
| 1777649308 | 20° C | 78% | 1020 hPa | 0 mm | - | 163 W/m² | - |
| 1777649021 | 20° C | 78% | 1020 hPa | 0 mm | - | 139 W/m² | - |
| 1777648715 | 20° C | 78% | 1019.9 hPa | 0 mm | - | 171 W/m² | - |
| 1777648408 | 20° C | 77% | 1019.9 hPa | 0 mm | - | 200 W/m² | - |
| 1777648105 | 20° C | 78% | 1019.9 hPa | 0 mm | - | 234 W/m² | - |
| 1777647818 | 20° C | 78% | 1019.9 hPa | 0 mm | - | 250 W/m² | - |
| 1777647509 | 20° C | 78% | 1019.9 hPa | 0 mm | - | 255 W/m² | - |
| 1777647205 | 20° C | 77% | 1020 hPa | 0 mm | - | 292 W/m² | - |
| 1777646916 | 20° C | 78% | 1020.1 hPa | 0 mm | - | 241 W/m² | - |
| 1777646607 | 20° C | 78% | 1019.9 hPa | 0 mm | - | 297 W/m² | - |
| 1777646303 | 20° C | 78% | 1020 hPa | 0 mm | - | 278 W/m² | - |
| 1777646014 | 20° C | 77% | 1020 hPa | 0 mm | - | 239 W/m² | - |
| 1777645704 | 20° C | 78% | 1020.1 hPa | 0 mm | - | 213 W/m² | - |
| 1777645402 | 20° C | 78% | 1020.1 hPa | 0 mm | - | 167 W/m² | - |
| 1777645112 | 20° C | 77% | 1020.2 hPa | 0 mm | - | 167 W/m² | - |
| 1777644806 | 20° C | 78% | 1020.2 hPa | 0 mm | - | 135 W/m² | - |
| 1777644519 | 20° C | 78% | 1020.2 hPa | 0 mm | - | 178 W/m² | - |
| 1777644210 | 20° C | 78% | 1020.3 hPa | 0 mm | - | 162 W/m² | - |
| 1777643921 | 20.56° C | 79% | 1020.3 hPa | 0 mm | - | 214 W/m² | - |
| 1777643614 | 20.56° C | 79% | 1020.4 hPa | 0 mm | - | 357 W/m² | - |
| 1777643308 | 20.56° C | 79% | 1020.3 hPa | 0 mm | - | 272 W/m² | - |
| 1777643022 | 20° C | 80% | 1020.3 hPa | 0 mm | - | 441 W/m² | - |
| 1777642713 | 20° C | 80% | 1020.2 hPa | 0 mm | - | 272 W/m² | - |
| 1777642423 | 20° C | 80% | 1020.3 hPa | 0 mm | - | 207 W/m² | - |
* Rain latest hour (hover to see other rain measurements)
** Current wind speed in m/s (hover to see current wind gust speed)